When you browse on this site, cookies collect data to enhance your experience and personalize the content and advertising you see.
Visit our Privacy Policy to learn more. By continuing to use the site, you agree to this use of cookies and data.
  • In United Kingdom
  • List of Countries
  • For 7 days
  • Water Temperature
  • Satellite Maps
  • Weather Map
  • Weather Widgets
  • user-avatar
    Login

    Hourly Weather Peshchera

    Today, 21 June, Friday

    Time Temperature Precipitation Wind Pressure Humidity
    00:00 +21°C° 0 mm 2 mps 720 mmHg 81%
    01:00 +21°C° 0 mm 2 mps 720 mmHg 86%
    02:00 +20°C° 0 mm 2 mps 720 mmHg 87%
    03:00 +20°C° 0 mm 2 mps 720 mmHg 87%
    04:00 +20°C° 0 mm 2 mps 720 mmHg 85%
    05:00 +20°C° 0 mm 2 mps 721 mmHg 85%
    06:00 +20°C° 0 mm 2 mps 721 mmHg 86%
    07:00 +21°C° 0 mm 2 mps 721 mmHg 85%
    08:00 +23°C° 0 mm 2 mps 721 mmHg 82%
    09:00 +25°C° 0 mm 2 mps 722 mmHg 79%
    10:00 +26°C° 0 mm 2 mps 722 mmHg 76%
    11:00 +27°C° 0 mm 2 mps 722 mmHg 70%
    12:00 +28°C° 0 mm 2 mps 721 mmHg 67%
    13:00 +28°C° 0 mm 4 mps 721 mmHg 66%
    14:00 +28°C° 0 mm 4 mps 721 mmHg 67%
    15:00 +29°C° 0 mm 3 mps 721 mmHg 64%
    16:00 +29°C° 0 mm 3 mps 720 mmHg 61%
    17:00 +29°C° 0 mm 3 mps 720 mmHg 61%
    18:00 +26°C° 0 mm 3 mps 720 mmHg 78%
    19:00 +25°C° 0 mm 3 mps 720 mmHg 81%
    20:00 +23°C° 0 mm 0 mps 720 mmHg 83%
    21:00 +22°C° 0 mm 0 mps 720 mmHg 84%
    22:00 +23°C° 0 mm 1 mps 720 mmHg 91%
    23:00 +21°C° 0 mm 0 mps 721 mmHg 95%

    Tomorrow, 22 June, Saturday

    Time Temperature Precipitation Wind Pressure Humidity
    00:00 +22°C° 0 mm 1 mps 721 mmHg 96%
    01:00 +22°C° 0 mm 1 mps 721 mmHg 99%
    02:00 +21°C° 0 mm 1 mps 721 mmHg 99%
    03:00 +21°C° 0 mm 1 mps 721 mmHg 99%
    04:00 +19°C° 0 mm 2 mps 721 mmHg 99%
    05:00 +20°C° 0 mm 1 mps 721 mmHg 99%
    06:00 +19°C° 0 mm 2 mps 721 mmHg 98%
    07:00 +20°C° 0 mm 2 mps 721 mmHg 98%
    08:00 +22°C° 0 mm 1 mps 722 mmHg 95%
    09:00 +23°C° 0 mm 1 mps 722 mmHg 91%
    10:00 +23°C° 0 mm 0 mps 722 mmHg 86%
    11:00 +24°C° 0 mm 0 mps 722 mmHg 81%
    12:00 +27°C° 0 mm 1 mps 721 mmHg 75%
    13:00 +26°C° 0.5 mm 3 mps 721 mmHg 79%
    14:00 +28°C° 0 mm 1 mps 721 mmHg 74%
    15:00 +28°C° 0 mm 2 mps 721 mmHg 79%
    16:00 +26°C° 0.2 mm 5 mps 720 mmHg 79%
    17:00 +27°C° 0 mm 3 mps 720 mmHg 75%
    18:00 +27°C° 0 mm 1 mps 720 mmHg 76%
    19:00 +25°C° 0 mm 0 mps 720 mmHg 77%
    20:00 +26°C° 0 mm 1 mps 720 mmHg 89%
    21:00 +23°C° 1 mm 5 mps 721 mmHg 90%
    22:00 +22°C° 0.1 mm 4 mps 721 mmHg 88%
    23:00 +23°C° 0 mm 2 mps 721 mmHg 88%

    Day after tomorrow, 23 June, Sunday

    Time Temperature Precipitation Wind Pressure Humidity
    00:00 +21°C° 0 mm 2 mps 721 mmHg 90%
    01:00 +21°C° 0 mm 2 mps 720 mmHg 89%
    02:00 +20°C° 0 mm 3 mps 720 mmHg 90%
    03:00 +20°C° 0 mm 3 mps 720 mmHg 90%
    04:00 +20°C° 0 mm 3 mps 720 mmHg 91%
    05:00 +20°C° 0 mm 2 mps 720 mmHg 91%
    06:00 +20°C° 0 mm 2 mps 721 mmHg 92%
    07:00 +21°C° 0 mm 3 mps 721 mmHg 93%
    08:00 +22°C° 0 mm 3 mps 721 mmHg 91%
    09:00 +24°C° 0 mm 3 mps 721 mmHg 89%
    10:00 +25°C° 0 mm 3 mps 721 mmHg 87%
    11:00 +27°C° 0 mm 3 mps 721 mmHg 83%
    12:00 +27°C° 0 mm 3 mps 721 mmHg 79%
    13:00 +28°C° 0 mm 3 mps 721 mmHg 76%
    14:00 +29°C° 0 mm 4 mps 720 mmHg 76%
    15:00 +29°C° 0 mm 4 mps 720 mmHg 73%
    16:00 +29°C° 0 mm 4 mps 720 mmHg 74%
    17:00 +28°C° 0 mm 4 mps 720 mmHg 75%
    18:00 +28°C° 0 mm 3 mps 720 mmHg 76%
    19:00 +27°C° 0 mm 2 mps 720 mmHg 79%
    20:00 +26°C° 0 mm 2 mps 720 mmHg 85%
    21:00 +25°C° 0 mm 2 mps 720 mmHg 89%
    22:00 +24°C° 0 mm 2 mps 720 mmHg 92%
    23:00 +24°C° 0 mm 2 mps 720 mmHg 91%

    24 June, Monday

    Time Temperature Precipitation Wind Pressure Humidity
    00:00 +23°C° 0 mm 2 mps 720 mmHg 88%
    01:00 +22°C° 0 mm 3 mps 721 mmHg 87%
    02:00 +22°C° 0 mm 3 mps 721 mmHg 87%
    03:00 +21°C° 0 mm 3 mps 721 mmHg 88%
    04:00 +21°C° 0 mm 3 mps 721 mmHg 89%
    05:00 +21°C° 0 mm 2 mps 721 mmHg 89%
    06:00 +21°C° 0 mm 2 mps 721 mmHg 89%
    07:00 +24°C° 0 mm 2 mps 722 mmHg 86%
    08:00 +26°C° 0 mm 3 mps 722 mmHg 78%
    09:00 +27°C° 0 mm 3 mps 722 mmHg 75%
    10:00 +28°C° 0 mm 3 mps 723 mmHg 72%
    11:00 +29°C° 0 mm 4 mps 723 mmHg 64%
    12:00 +30°C° 0 mm 3 mps 723 mmHg 62%
    13:00 +30°C° 0 mm 3 mps 723 mmHg 59%
    14:00 +30°C° 0 mm 4 mps 723 mmHg 59%

    25 June, Tuesday

    Time Temperature Precipitation Wind Pressure Humidity

    26 June, Wednesday

    Time Temperature Precipitation Wind Pressure Humidity
    Show more